Regional Weather Roundup
Issued by NWS

Home | Current Version | Previous Version | Text Only | Print | Product List | Glossary On
Versions: 1 2 3 4 5 6 7 8 9 10 11 12 13 14 15 16 17 18 19 20 21 22 23 24 25 26 27 28 29 30 31 32 33 34 35 36 37 38 39 40 41 42 43 44 45 46 47 48 49 50
000
ASUS44 KFWD 280315
RWRTX
NORTH TEXAS HOURLY WEATHER ROUNDUP
NATIONAL WEATHER SERVICE FORT WORTH TX
1000 PM CDT MON JUL 27 2015

NOTE: "FAIR" INDICATES FEW OR NO CLOUDS BELOW 12,000 FEET WITH NO
SIGNIFICANT WEATHER AND/OR OBSTRUCTIONS TO VISIBILITY.

TXZ118-119-280400-
DALLAS/FORT WORTH METROPLEX

CITY           SKY/WX    TMP DP  RH WIND       PRES   REMARKS
DFW AIRPORT    CLEAR     90  65  43 SE9       29.89R HX  92
DALLAS LOVE    PTCLDY    93  66  40 S12       29.89R HX  96
FTW MEACHAM    CLEAR     91  66  43 SE10      29.89R HX  93
DAL-EXECUTIVE  CLEAR     87  66  49 S6        29.90R
FTW-ALLIANCE   PTCLDY    89  66  46 S8        29.89R HX  91
FTW-NAS-JRB    CLEAR     92  65  40 SE12      29.90R HX  94
FTW-SPINKS     CLEAR     84  66  54 SE5       29.92R
ARLINGTON      CLEAR     89  66  46 SE7       29.90R HX  91
GRAND PRAIRIE  CLEAR     89  69  51 SE5       29.91R HX  93
ADDISON        CLEAR     91  63  38 SE12      29.90R HX  92
MESQUITE       CLEAR     86  66  51 SE3       29.90R
LANCASTER      CLEAR     84  67  55 CALM      29.91R
$$

TXZ091>094-102>105-117-120-121-131>134-280400-
NORTH CENTRAL TEXAS

CITY           SKY/WX    TMP DP  RH WIND       PRES   REMARKS
SHRMAN/DENISON CLEAR     89  72  57 SE8       29.91R HX  95
GAINESVILLE    CLEAR     83  69  62 SE5       29.92R
BOWIE          CLEAR     82  68  62 CALM      29.90R
DECATUR        CLEAR     87  64  45 SE8       29.91R
DENTON         CLEAR     87  68  52 S8        29.89R HX  90
MCKINNEY       CLEAR     86  70  58 SE6       29.90R HX  90
GREENVILLE     CLEAR     86  72  62 SE3       29.91R HX  92
ROCKWALL       CLEAR     88  68  52 S6        29.89R HX  91
TERRELL        CLEAR     87  70  56 SE3       29.90R HX  92
WAXAHACHIE     CLEAR     85  69  58 SE5       29.92R
CLEBURNE       CLEAR     88  68  51 SE9       29.92R HX  91
GRANBURY       CLEAR     90  64  42 SE7       29.91R HX  91
$$

TXZ083>090-098>101-113>116-127>130-139>142-154-155-280400-
WESTERN NORTH TEXAS

CITY           SKY/WX    TMP DP  RH WIND       PRES   REMARKS
WICHITA FALLS  CLEAR     84  66  54 SE10      29.88R
WF-KICKAPOO    CLEAR     87  66  50 SE8       29.90R
VERNON         CLEAR     90  55  30 SE10      29.88R
ABILENE        CLEAR     87  65  47 SE14      29.91R
ABILENE-DYESS  CLEAR     89  67  49 E9        29.90R HX  91
BRECKENRIDGE   CLEAR     87  63  43 SE8       29.90R
GRAHAM         CLEAR     88  66  48 SE9       29.88R HX  90
MINERAL WELLS  CLEAR     83  66  56 SE5       29.89R
STEPHENVILLE   CLEAR     85  63  47 SE6       29.95R
COMANCHE       CLEAR     85  65  52 SE8       29.92R
BROWNWOOD      CLOUDY    86  64  48 SE7       29.92R
COLEMAN        CLEAR     87  65  48 SE9       29.92R
BRADY          CLEAR     90  64  43 SE7       29.93R HX  91
$$

TXZ143>147-156>162-174-175-280400-
CENTRAL TEXAS

CITY           SKY/WX    TMP DP  RH WIND       PRES   REMARKS
WACO           CLEAR     89  66  46 SE9       29.90R HX  91
WACO-TSTC      CLEAR     84  68  58 SE6       29.90R
WACO-MCGREGOR  CLEAR     88  64  45 SE7       29.91R
HILLSBORO      CLEAR     87  63  44 SE7       29.91R
CORSICANA      CLEAR     86  70  58 S5        29.91R HX  90
MEXIA          CLEAR    N/A N/A N/A SE12      29.91R
HEARNE         CLEAR     85  71  62 SE6       29.91R HX  90
CAMERON        CLEAR     87  70  57 SE7       29.90R HX  91
TEMPLE         CLEAR     86  64  48 SE9       29.91R
KILLEEN        CLEAR     86  67  52 SE8       29.91R
KILLEEN-SKYLRK CLEAR     88  66  48 SE10      29.90R HX  90
FORT HOOD      CLEAR     88  67  49 SE10      29.90R HX  90
GATESVILLE     CLEAR     86  66  51 CALM      29.93R
HAMILTON       CLEAR     86  63  46 SE9       29.93R
LAMPASAS       CLEAR     87  68  53 SE3       29.92R HX  90
$$

TXZ095>097-106>112-122>126-135>138-148>153-164>167-280400-
EAST TEXAS

CITY           SKY/WX    TMP DP  RH WIND       PRES   REMARKS
PARIS          CLEAR     88  72  58 SE6       29.91R HX  94
SULPHUR SPRNGS CLEAR     89  70  53 S3        29.93R HX  94
MOUNT PLEASANT CLEAR     84  72  67 SE3       29.92R HX  90
GILMER         CLEAR     85  72  63 SE3       29.91R HX  91
MINEOLA        CLEAR     82  75  78 CALM      29.91R
TYLER          CLEAR     87  71  58 SE7       29.91R HX  93
LONGVIEW       CLEAR     85  73  67 S3        29.91R HX  91
MARSHALL       CLEAR     88  79  74 CALM      29.93R HX 104
ATHENS         CLEAR     81  72  74 CALM      29.90R
PALESTINE      CLEAR     87  71  58 CALM      29.92R HX  93
JACKSONVILLE   CLEAR     87  70  57 S5        29.94R HX  92
HENDERSON      CLEAR     80  74  82 CALM      29.93R
CENTER         FAIR      82  76  83 CALM      29.92R
NACOGDOCHES    PTCLDY    82  73  74 SE5       29.92R
LUFKIN         CLEAR     83  73  72 SE6       29.92R
$$

SUPPLEMENTAL OBSERVATIONS (CENTRAL)

CITY           SKY/WX    TMP DP  RH WIND       PRES   REMARKS
LAKE TEXOMA      N/A     88  70  55 S5          N/A  HX  92
PAT MAYSE LAKE   N/A     90  72  55 E7          N/A  HX  96
GREENVILLE       N/A     86  70  58 SE2         N/A  HX  90
CEDAR HILL       N/A     84  64  51 SE5         N/A
ATHENS           N/A     86  72  62 S1          N/A  HX  92
LAKE LIMESTONE   N/A     84  68  58 S2          N/A
MCGREGOR         N/A     86  66  51 SE6         N/A
TEMPLE           N/A     86  66  51 SE7         N/A
$$

SUPPLEMENTAL OBSERVATIONS (WEST)

CITY           SKY/WX    TMP DP  RH WIND       PRES   REMARKS
POSSUM KINGDOM   N/A     88  63  42 SE9         N/A
GRANBURY         N/A     90  64  43 SE9         N/A  HX  91
COMANCHE         N/A     84  61  45 SE9         N/A
HAMBY            N/A     84  64  51 SE8         N/A
COLORADO BEND    N/A     88  64  45 S8          N/A
$$

SUPPLEMENTAL OBSERVATIONS (EAST)

CITY           SKY/WX    TMP DP  RH WIND       PRES   REMARKS
CLARKSVILLE      N/A     88  73  62 SE5         N/A  HX  96
TEXARKANA        N/A     79  73  83 CALM        N/A
LINDEN           N/A     84  72  65 CALM        N/A
CADDO LAKE       N/A     79  75  89 CALM        N/A
GILMER           N/A     84  70  61 S2          N/A
HENDERSON        N/A     82  70  65 CALM        N/A
LUFKIN           N/A     82  72  69 MISG        N/A
N SABINE NF      N/A     81  77  89 MISG        N/A
S SABINE NF      N/A     81  73  78 CALM        N/A
$$

SUPPLEMENTAL OBSERVATIONS ARE A COLLECTION OF AUTOMATED INSTRUMENTS
THAT ARE MAINTAINED BY A VARIETY OF FEDERAL AND STATE AGENCIES.
CERTAIN ELEMENTS...SUCH AS HUMIDITY VALUES AND SUSTAINED WIND
SPEEDS...MAY BE APPROXIMATED.




USA.gov is the U.S. government's official web portal to all federal, state and local government web resources and services.